{"data":{"norad_id":53661,"epoch":"2026-09-20T14:26:10.759488Z","epoch_age_seconds":72496,"freshness":"FRESH","line1":"1 53661U 22105P   26263.60151342 -.00000083  00000+0 -18653-5 0  9992","line2":"2 53661  97.2862 137.3533 0001792  54.0780 306.0614 15.05661393222550","mean_motion":15.05661393,"eccentricity":0.0001792,"inclination_deg":97.2862,"raan_deg":137.3533,"arg_perigee_deg":54.078,"mean_anomaly_deg":306.0614,"bstar":-1.8653e-6,"rev_number":22255,"period_min":95.639033231159,"perigee_km":548.23477907473,"apogee_km":550.71763564825,"semimajor_km":6927.6132073615,"source":"CELESTRAK","updated_at":"2026-09-21T09:00:32.951864Z"}}